Wind_Speed
3 3 3 2 2 2 2 1 0 1 1 1 1 1 2 3 3 3 3 4 5 4 4 4 4 4 4 4 5 5 5 6 6 6 6 7 7 7 7 8 8 9 9
3 2 2 2 2 2 2 1 1 1 1 2 2 3 4 4 5 5 5 4 4 5 5 5 5 5 5 6 6 6 6 7 7 7 7 7 7 6 7 8 8 9 9
3 3 3 3 2 2 1 1 1 1 2 3 3 4 5 6 6 5 5 5 5 5 6 6 5 6 6 6 7 6 7 7 8 8 8 8 7 7 8 9 9 9 10
3 3 3 3 2 1 1 1 2 2 3 3 4 4 5 6 6 5 6 6 6 6 6 6 7 7 7 7 8 8 8 8 8 8 8 9 9 9 9 10 10 10 10
3 3 2 2 1 1 1 2 2 3 3 3 4 5 4 4 5 6 5 5 6 6 6 7 7 8 8 8 8 8 9 9 9 8 8 9 9 9 10 10 10 10 10
4 3 2 1 1 2 2 3 2 3 3 3 3 4 3 3 4 4 5 5 6 6 6 7 7 7 8 8 8 9 9 9 9 9 9 9 9 10 10 10 10 10 11
2 2 2 2 2 2 2 2 2 3 3 3 4 4 3 3 3 3 4 5 6 6 7 7 7 7 8 8 8 8 9 9 9 9 10 10 10 10 10 10 10 11 11
1 1 2 2 2 2 2 3 3 3 3 4 4 4 4 4 4 4 4 5 5 6 7 7 7 7 7 8 8 8 9 9 9 9 9 10 10 10 11 11 11 11 11
1 1 2 3 3 3 3 3 4 4 4 5 5 5 5 5 5 5 5 6 6 7 7 7 7 8 8 8 9 9 10 10 9 9 9 10 10 10 10 11 11 12 12
3 3 4 4 4 4 4 5 5 5 5 5 5 5 6 7 7 7 7 7 7 8 8 8 8 9 10 10 10 10 10 10 10 11 11 11 11 11 11 11 12 12 12
4 4 5 6 6 6 6 6 6 6 6 6 7 7 7 7 8 9 9 9 9 9 10 10 10 11 11 11 11 11 12 12 11 12 12 11 12 12 13 13 13 13 13
5 6 7 7 8 8 8 8 8 8 8 8 8 8 8 9 9 10 10 10 10 11 12 12 12 12 12 12 12 13 13 13 12 13 13 13 14 14 14 14 14 14 14
7 7 8 9 9 10 10 10 10 10 9 9 10 10 11 11 11 11 10 10 11 12 13 13 14 14 14 14 14 14 14 14 14 14 14 14 15 15 15 15 15 15 15
9 9 10 10 11 11 11 11 11 11 12 12 12 12 12 13 13 12 11 12 13 13 14 14 14 15 15 15 15 15 15 15 14 14 14 15 15 16 16 16 16 17 17
11 11 12 13 13 13 13 13 13 13 14 14 14 13 13 13 13 13 13 13 13 14 14 14 15 15 15 15 16 16 16 16 16 16 16 16 16 16 17 17 18 18 19
13 13 14 15 15 15 15 15 14 14 14 14 14 14 15 15 14 14 14 14 15 15 16 16 17 17 17 17 17 17 17 17 18 18 18 18 17 18 18 19 19 20 20
16 16 17 16 16 17 17 17 16 16 16 16 16 16 17 17 17 17 17 18 18 18 18 18 18 18 18 18 18 18 18 18 19 20 19 19 19 20 20 21 21 21 21
19 19 19 19 18 19 19 19 18 18 18 18 18 18 19 19 18 18 19 20 20 21 21 20 20 20 20 19 19 19 20 20 21 21 21 21 21 22 23 23 24 23 24
22 22 22 22 22 21 21 20 19 19 20 20 19 19 19 19 19 19 20 21 22 23 23 23 22 22 22 21 22 22 22 22 23 23 23 23 24 24 24 24 25 25 25
24 24 24 24 24 23 22 22 21 21 21 21 21 21 21 21 22 22 23 24 24 25 25 25 25 25 24 25 24 24 24 24 24 24 24 24 24 25 25 26 26 26 27
26 26 26 25 25 24 24 23 23 23 22 22 23 23 24 24 25 26 26 27 27 27 27 28 28 27 26 27 27 26 26 26 25 25 25 25 26 26 27 27 27 27 27
28 28 27 26 26 25 25 24 25 25 25 25 25 25 26 26 27 28 28 29 28 29 29 29 29 28 28 28 29 28 28 28 27 27 28 28 28 29 29 29 29 29 28
28 28 28 27 27 27 27 26 27 27 27 27 27 27 28 28 29 29 30 30 29 29 29 29 30 29 30 30 30 30 30 30 30 30 30 30 30 31 31 31 31 30 30
30 29 29 29 29 29 29 28 28 28 28 29 29 29 29 29 29 30 30 30 30 30 31 31 31 30 30 31 32 32 32 32 33 32 33 33 32 32 32 32 31 31 31
32 32 32 31 31 31 31 30 30 30 30 30 30 30 29 30 30 31 31 31 31 31 32 32 31 31 31 32 33 34 34 34 34 34 34 34 34 34 33 32 32 32 32
34 33 33 33 32 32 32 32 33 33 32 32 32 32 32 32 32 32 32 32 32 32 32 32 32 32 33 34 35 35 35 35 35 34 35 35 34 34 33 33 33 33 33
Wind_Direction
136 139 136 129 125 121 125 141 227 264 254 260 267 257 248 242 250 257 251 245 248 254 260 266 280 282 291 295 299 298 290 287 285 289 287 287 292 291 288 284 285 279 277
137 140 140 136 146 141 136 127 251 303 277 278 279 268 259 255 257 258 256 251 256 263 267 272 277 284 287 288 292 295 290 290 288 287 288 295 295 292 289 284 285 281 281
150 154 147 139 141 159 192 241 277 295 308 297 284 276 273 267 266 263 257 261 268 269 273 275 279 286 289 293 290 293 293 291 292 285 285 294 296 293 295 291 288 284 282
147 148 143 138 128 138 217 272 270 276 294 294 292 295 287 275 268 261 258 262 272 277 279 280 281 284 287 292 292 289 290 286 288 287 285 288 292 294 295 292 291 290 285
136 137 123 107 90 24 319 307 293 294 299 306 307 307 298 283 270 258 261 258 273 279 281 282 282 284 287 291 292 288 285 282 284 287 286 288 291 291 295 295 292 291 287
99 90 89 84 29 1 333 320 307 297 297 307 317 318 322 307 284 262 263 265 270 276 281 286 286 286 289 292 290 290 287 284 281 282 281 284 288 291 295 294 293 291 288
90 66 51 28 360 355 345 332 315 299 299 305 310 310 309 317 316 295 290 289 283 280 281 287 292 293 293 293 295 297 292 286 281 279 278 280 284 289 294 296 293 292 292
89 31 16 352 334 339 341 337 328 311 297 296 294 294 299 306 306 299 297 298 297 297 288 284 285 289 295 294 295 300 299 291 282 278 279 284 286 288 290 294 294 290 290
289 308 322 333 330 313 308 304 304 308 312 302 293 289 290 295 303 293 288 289 290 293 289 284 284 288 291 295 298 298 291 291 287 284 284 285 287 291 293 293 293 293 290
285 292 304 311 316 314 300 294 291 294 298 302 297 293 289 292 291 287 285 285 285 287 285 288 290 290 290 292 293 299 294 290 287 288 288 288 288 292 296 295 293 293 290
284 289 297 301 302 305 302 293 289 290 294 296 296 294 291 289 288 286 284 286 286 284 282 283 284 285 287 288 288 294 298 294 291 291 289 288 288 289 292 294 293 293 289
286 290 292 295 298 298 298 293 287 286 285 285 287 288 291 289 289 290 287 287 288 285 283 282 281 281 284 286 287 291 296 294 291 292 293 291 288 287 289 292 292 291 289
285 287 289 290 294 296 295 291 283 280 281 285 286 286 287 287 289 291 292 290 290 289 286 285 283 281 282 284 285 288 291 292 289 290 289 289 286 283 285 288 290 291 290
276 278 282 286 288 291 293 289 283 281 281 282 284 285 285 285 285 288 289 290 289 288 287 285 285 285 282 282 282 285 289 289 289 286 288 289 285 282 283 286 289 290 289
275 277 279 281 284 286 289 289 286 284 284 283 283 284 285 285 284 285 287 288 290 289 289 285 284 285 284 283 282 284 288 289 289 288 287 287 284 283 283 285 286 287 287
275 278 278 280 281 282 285 287 287 284 286 286 285 284 284 282 283 283 284 284 286 288 288 287 284 283 281 282 283 283 284 286 289 288 286 286 285 285 285 285 285 286 285
275 277 277 279 282 285 282 283 284 285 284 284 283 283 285 282 281 280 281 283 284 283 283 284 284 284 281 283 286 285 283 284 286 286 286 285 284 284 283 283 285 285 284
274 277 278 278 281 283 285 284 283 284 284 284 286 283 283 282 282 282 282 283 283 283 282 282 282 283 282 283 285 285 284 283 284 286 285 283 281 281 282 282 283 283 284
273 274 276 276 278 278 280 283 284 285 284 284 286 286 285 282 281 282 284 284 283 283 282 281 280 280 281 282 282 284 284 284 284 284 283 283 282 282 282 281 283 283 284
272 272 274 274 274 275 276 278 282 285 285 284 283 284 283 282 283 283 285 284 283 282 281 281 280 280 279 280 281 283 284 284 285 284 283 283 285 285 282 281 282 283 283
270 271 272 273 275 276 275 276 279 282 284 284 282 282 282 282 283 283 284 283 283 282 281 280 279 280 278 279 280 281 282 283 283 282 283 283 283 284 283 282 282 283 283
270 270 270 272 275 276 276 277 278 280 281 282 280 280 280 281 282 283 283 283 282 281 282 280 278 279 278 278 279 280 280 280 280 281 281 282 282 281 281 281 281 281 281
270 270 271 272 273 275 275 276 277 278 280 281 280 279 279 281 283 282 282 281 281 281 282 282 279 278 278 277 278 279 279 280 280 280 279 280 281 281 280 279 279 279 279
267 268 270 272 272 272 274 275 275 276 279 280 280 280 279 281 282 283 281 280 280 280 281 282 279 277 278 278 277 278 279 280 280 280 279 279 280 281 280 279 278 279 278
267 268 270 270 271 271 272 274 275 276 277 279 280 279 279 280 281 282 282 281 280 280 281 281 280 279 279 279 279 280 280 281 281 282 281 280 279 280 279 277 278 278 278
266 267 268 268 271 273 274 275 276 275 275 277 278 278 278 279 280 282 283 282 280 281 281 281 281 281 280 280 280 280 280 281 282 282 281 280 279 278 278 276 276 276 277
Height
5912 5912 5912 5912 5912 5912 5912 5911 5911 5911 5911 5910 5910 5909 5909 5909 5909 5909 5909 5909 5909 5908 5908 5908 5908 5907 5907 5906 5905 5905 5904 5904 5903 5902 5902 5901 5900 5900 5899 5898 5898 5897 5896
5912 5912 5912 5912 5912 5912 5911 5911 5911 5911 5910 5910 5909 5909 5908 5908 5908 5908 5908 5908 5908 5907 5907 5907 5907 5906 5906 5905 5904 5903 5903 5902 5901 5901 5900 5899 5899 5898 5897 5897 5896 5895 5894
5912 5912 5912 5912 5912 5911 5911 5911 5911 5910 5910 5909 5909 5908 5907 5907 5907 5907 5907 5907 5906 5906 5906 5905 5905 5904 5904 5903 5903 5902 5901 5900 5900 5899 5899 5898 5897 5896 5896 5895 5894 5893 5892
5912 5912 5912 5912 5912 5911 5911 5911 5910 5910 5909 5909 5908 5907 5906 5906 5906 5906 5906 5906 5905 5905 5904 5904 5903 5903 5902 5902 5901 5900 5899 5898 5898 5897 5897 5896 5896 5895 5894 5893 5892 5891 5890
5912 5912 5912 5912 5912 5911 5911 5910 5909 5909 5908 5908 5907 5906 5905 5905 5905 5905 5904 5904 5904 5903 5903 5902 5902 5901 5900 5900 5899 5898 5897 5896 5896 5895 5895 5894 5893 5893 5892 5891 5890 5889 5888
5912 5912 5912 5912 5911 5911 5910 5909 5908 5908 5908 5907 5906 5905 5905 5904 5904 5903 5903 5903 5902 5901 5901 5900 5900 5899 5899 5898 5897 5896 5895 5894 5893 5893 5892 5892 5891 5890 5889 5888 5887 5886 5886
5912 5912 5912 5911 5911 5910 5909 5908 5908 5907 5907 5906 5905 5904 5904 5903 5903 5902 5902 5901 5900 5900 5899 5899 5898 5897 5897 5896 5895 5894 5893 5892 5891 5890 5890 5889 5889 5888 5887 5886 5885 5884 5883
5912 5911 5911 5910 5910 5909 5908 5907 5907 5906 5905 5904 5904 5903 5903 5903 5901 5901 5900 5900 5899 5898 5897 5897 5896 5896 5895 5894 5893 5892 5891 5890 5889 5888 5887 5887 5886 5885 5884 5883 5882 5881 5880
5911 5911 5910 5909 5909 5908 5907 5906 5906 5905 5904 5903 5902 5902 5901 5901 5900 5900 5899 5898 5897 5897 5896 5895 5894 5894 5893 5892 5891 5890 5889 5888 5887 5886 5885 5884 5884 5883 5882 5880 5879 5878 5877
5910 5909 5909 5908 5907 5906 5906 5905 5904 5903 5903 5902 5901 5900 5900 5899 5899 5898 5898 5897 5896 5895 5894 5893 5892 5891 5891 5890 5889 5888 5887 5886 5885 5884 5883 5882 5881 5880 5879 5877 5876 5875 5874
5908 5908 5907 5906 5906 5905 5904 5903 5902 5901 5901 5900 5899 5899 5898 5897 5897 5896 5895 5894 5893 5893 5892 5891 5890 5889 5888 5887 5886 5885 5884 5883 5882 5881 5879 5878 5878 5877 5876 5874 5873 5872 5870
5906 5906 5905 5905 5904 5903 5902 5901 5900 5899 5899 5898 5897 5896 5896 5895 5894 5894 5892 5892 5891 5890 5889 5888 5887 5886 5885 5884 5883 5882 5881 5880 5879 5877 5876 5875 5874 5874 5873 5871 5870 5868 5867
5904 5903 5903 5902 5901 5900 5899 5898 5897 5896 5896 5895 5894 5893 5893 5892 5891 5891 5890 5889 5888 5887 5886 5885 5884 5883 5882 5880 5879 5878 5877 5876 5875 5874 5873 5871 5871 5870 5869 5868 5866 5865 5863
5901 5900 5900 5899 5898 5897 5895 5894 5893 5893 5892 5892 5891 5890 5889 5888 5888 5887 5887 5886 5885 5884 5883 5881 5880 5879 5878 5877 5876 5875 5873 5872 5871 5870 5868 5867 5866 5865 5864 5863 5862 5861 5859
5897 5897 5896 5895 5894 5893 5892 5891 5890 5889 5888 5887 5887 5886 5885 5884 5884 5883 5882 5882 5881 5880 5879 5877 5876 5875 5873 5873 5872 5871 5869 5868 5867 5866 5864 5863 5862 5861 5860 5859 5858 5856 5855
5893 5892 5892 5891 5889 5888 5887 5886 5885 5884 5883 5883 5882 5881 5880 5880 5879 5878 5878 5877 5877 5876 5875 5874 5872 5870 5869 5868 5867 5866 5865 5864 5862 5861 5859 5858 5857 5856 5855 5854 5852 5851 5850
5888 5887 5886 5885 5884 5883 5883 5882 5881 5880 5879 5878 5877 5876 5876 5875 5874 5874 5873 5872 5871 5871 5870 5869 5867 5865 5864 5863 5861 5860 5859 5858 5857 5855 5854 5853 5852 5851 5849 5848 5847 5845 5844
5882 5881 5880 5879 5879 5878 5877 5877 5876 5875 5873 5873 5872 5871 5870 5869 5869 5868 5867 5866 5865 5864 5864 5863 5862 5860 5859 5857 5856 5855 5853 5852 5850 5849 5848 5847 5846 5844 5843 5842 5840 5839 5838
5876 5875 5875 5874 5873 5872 5871 5871 5870 5869 5868 5867 5866 5865 5864 5863 5863 5862 5861 5860 5859 5858 5857 5856 5856 5854 5853 5851 5850 5849 5847 5846 5844 5843 5841 5840 5839 5837 5836 5835 5834 5832 5831
5870 5869 5868 5867 5867 5866 5865 5864 5864 5863 5862 5861 5860 5860 5858 5857 5856 5855 5854 5853 5852 5851 5850 5849 5848 5847 5846 5845 5843 5842 5841 5839 5837 5836 5834 5833 5832 5830 5829 5828 5826 5825 5823
5862 5862 5861 5860 5859 5859 5859 5858 5857 5856 5855 5855 5854 5853 5852 5850 5849 5848 5847 5846 5845 5843 5842 5841 5840 5840 5839 5837 5836 5835 5833 5832 5830 5829 5827 5826 5824 5823 5821 5820 5819 5817 5816
5854 5853 5853 5852 5852 5852 5851 5851 5850 5849 5848 5847 5847 5845 5844 5843 5842 5840 5839 5838 5837 5835 5834 5833 5832 5831 5831 5829 5828 5827 5825 5824 5823 5822 5820 5818 5816 5815 5813 5812 5811 5809 5807
5846 5846 5845 5845 5845 5844 5843 5843 5842 5841 5840 5839 5838 5837 5836 5835 5833 5832 5830 5829 5828 5826 5825 5824 5823 5823 5821 5821 5820 5819 5817 5815 5814 5813 5811 5809 5807 5806 5805 5803 5802 5800 5799
5837 5836 5836 5836 5836 5835 5835 5834 5834 5833 5832 5831 5830 5828 5827 5826 5824 5823 5821 5820 5819 5818 5816 5815 5814 5813 5812 5811 5810 5809 5807 5806 5805 5803 5801 5800 5799 5797 5795 5794 5792 5791 5789
5826 5826 5826 5826 5826 5826 5826 5825 5825 5824 5823 5822 5821 5820 5818 5817 5815 5813 5812 5811 5810 5809 5807 5805 5804 5803 5802 5801 5800 5799 5797 5796 5795 5793 5791 5789 5788 5787 5785 5784 5782 5781 5779
5815 5816 5816 5816 5816 5816 5816 5815 5815 5814 5813 5812 5811 5810 5809 5807 5806 5804 5803 5801 5800 5799 5797 5796 5795 5793 5792 5791 5789 5788 5786 5785 5784 5783 5780 5779 5777 5776 5775 5774 5772 5770 5769